Month Start Date,Year,Month,Daily air temp (mean),Daily sea temp (mean),Monthly rainfall,Monthly sunshine,Daily air pressure (mean)
1981-01-01,1981,1,7,,69.2,,
1981-02-01,1981,2,5.1,,65.6,,
1981-03-01,1981,3,9.2,,119.5,,
1981-04-01,1981,4,9.5,,36.8,,
1981-05-01,1981,5,12.1,,124.9,,
1981-06-01,1981,6,14.7,,25.7,,
1981-07-01,1981,7,16.7,,45.3,,
1981-08-01,1981,8,18.4,,13.9,,
1981-09-01,1981,9,16.9,,137.3,,
1981-10-01,1981,10,11.8,,187.8,,
1981-11-01,1981,11,10.1,,42.5,,
1981-12-01,1981,12,6.1,,165.9,,
1982-01-01,1982,1,6.3,,94.2,,
1982-02-01,1982,2,6.7,,42,,
1982-03-01,1982,3,7.9,,91.8,,
1982-04-01,1982,4,10.1,,30.5,,
1982-05-01,1982,5,13.5,,49.2,,
1982-06-01,1982,6,17,,121.8,,
1982-07-01,1982,7,17.6,,52.7,,
1982-08-01,1982,8,17.2,,45.1,,
1982-09-01,1982,9,17.5,,60.1,,
1982-10-01,1982,10,12.5,,179.7,,
1982-11-01,1982,11,10.3,,117,,
1982-12-01,1982,12,7.2,,174.1,,
1983-01-01,1983,1,7.9,,71,,
1983-02-01,1983,2,4.2,,67.5,,
1983-03-01,1983,3,7.5,,66,,
1983-04-01,1983,4,8.9,,108,,
1983-05-01,1983,5,11.9,,81.7,,
1983-06-01,1983,6,16.1,,11.3,,
1983-07-01,1983,7,21.1,,23,,
1983-08-01,1983,8,19.1,,14.9,,
1983-09-01,1983,9,16.2,,81.1,,
1983-10-01,1983,10,12.9,,82.8,,
1983-11-01,1983,11,9.9,,56.9,,
1983-12-01,1983,12,7.4,,65.6,,
1984-01-01,1984,1,6.9,,179.7,,
1984-02-01,1984,2,5.9,,60.7,,
1984-03-01,1984,3,6.9,,79.2,,
1984-04-01,1984,4,10.5,,5.2,,
1984-05-01,1984,5,11.1,,84.4,,
1984-06-01,1984,6,16.1,,20.9,,
1984-07-01,1984,7,18.5,,21.3,,
1984-08-01,1984,8,18.9,,44.1,,
1984-09-01,1984,9,15.7,,97.2,,
1984-10-01,1984,10,13.1,,65.2,,
1984-11-01,1984,11,10.7,,118.3,,
1984-12-01,1984,12,7.7,,118.4,,
1985-01-01,1985,1,3.1,,107.5,,
1985-02-01,1985,2,4.7,,36.9,,
1985-03-01,1985,3,6.5,,99.6,,
1985-04-01,1985,4,10,,54.3,,
1985-05-01,1985,5,12.5,,38.3,,
1985-06-01,1985,6,14.3,,41.2,,
1985-07-01,1985,7,17.7,,49.3,,
1985-08-01,1985,8,16.8,,67.8,,
1985-09-01,1985,9,16.9,,36.8,,
1985-10-01,1985,10,13.5,,66,,
1985-11-01,1985,11,7.9,,102.6,,
1985-12-01,1985,12,8.8,,96.8,,
1986-01-01,1986,1,6.7,,112.3,,
1986-02-01,1986,2,1.4,,30.2,,
1986-03-01,1986,3,6.8,,95.8,,
1986-04-01,1986,4,7.5,,42.6,,
1986-05-01,1986,5,12.5,,61,,
1986-06-01,1986,6,15.9,,66.4,,
1986-07-01,1986,7,16.5,,42.7,,
1986-08-01,1986,8,15.9,,60.3,,
1986-09-01,1986,9,13.7,,79.3,,
1986-10-01,1986,10,13.9,,104.1,,
1986-11-01,1986,11,10.1,,110.6,,
1986-12-01,1986,12,8.3,,132.5,,
1987-01-01,1987,1,1.5,,37.8,,
1987-02-01,1987,2,5.2,,60.8,,
1987-03-01,1987,3,6.4,,58.5,,
1987-04-01,1987,4,11.6,,63.6,,
1987-05-01,1987,5,11.9,,33.5,,
1987-06-01,1987,6,14.3,,75.6,,
1987-07-01,1987,7,17.4,,65.5,,
1987-08-01,1987,8,17.7,,18.3,,
1987-09-01,1987,9,17.1,,44,,
1987-10-01,1987,10,13,,144,,
1987-11-01,1987,11,9.4,,108.9,,
1987-12-01,1987,12,7,,50.1,,
1988-01-01,1988,1,8,,183.9,,
1988-02-01,1988,2,6.9,,85.5,,
1988-03-01,1988,3,8.5,,122.5,,
1988-04-01,1988,4,10.6,,26.6,,
1988-05-01,1988,5,13.9,,41.7,,
1988-06-01,1988,6,15.8,,14.8,,
1988-07-01,1988,7,16.4,,47.8,,
1988-08-01,1988,8,17.5,,91.4,,
1988-09-01,1988,9,16,,69.1,,
1988-10-01,1988,10,13.6,,103.1,,
1988-11-01,1988,11,9.1,,46,,
1988-12-01,1988,12,9.4,,70.8,,
1989-01-01,1989,1,7.4,,39.3,,
1989-02-01,1989,2,7.9,,84.8,,
1989-03-01,1989,3,9.9,,71.1,,
1989-04-01,1989,4,8.9,,75.1,,
1989-05-01,1989,5,15.7,,3.6,,
1989-06-01,1989,6,16.7,,32.5,,
1989-07-01,1989,7,19.7,,8.1,,
1989-08-01,1989,8,19.1,,8.6,,
1989-09-01,1989,9,17.8,,22.3,,
1989-10-01,1989,10,15,,38.9,,
1989-11-01,1989,11,9.8,,75.9,,
1989-12-01,1989,12,7.5,,101.2,,
1990-01-01,1990,1,8.2,,112.5,,
1990-02-01,1990,2,9.5,,140.7,,
1990-03-01,1990,3,9.9,,11.1,,
1990-04-01,1990,4,10.2,,63,,
1990-05-01,1990,5,15.3,,7.3,,
1990-06-01,1990,6,15.2,,64.2,,
1990-07-01,1990,7,18.7,,18,,
1990-08-01,1990,8,20,,17.5,,
1990-09-01,1990,9,16.5,,36,,
1990-10-01,1990,10,14.5,,91.4,,
1990-11-01,1990,11,9.5,,90.8,,
1990-12-01,1990,12,6.6,,100.7,,
1991-01-01,1991,1,5.7,,75.9,,
1991-02-01,1991,2,3.5,,46,,
1991-03-01,1991,3,9.4,,52.9,,
1991-04-01,1991,4,9.5,,43.5,,
1991-05-01,1991,5,11.7,,10.9,,
1991-06-01,1991,6,13.8,,82.5,,
1991-07-01,1991,7,17.6,,34.2,,
1991-08-01,1991,8,18.7,,18.2,,
1991-09-01,1991,9,17.4,,49.2,,
1991-10-01,1991,10,12.4,,90.8,,
1991-11-01,1991,11,8.9,,156.2,,
1991-12-01,1991,12,6.2,,37.6,,
1992-01-01,1992,1,5.5,,9.2,,
1992-02-01,1992,2,6.9,,35.2,,
1992-03-01,1992,3,8.5,,50.8,,
1992-04-01,1992,4,10,,76.3,,
1992-05-01,1992,5,14.9,,60.7,,
1992-06-01,1992,6,16.5,,52.7,,
1992-07-01,1992,7,17.9,,63.3,,
1992-08-01,1992,8,17.7,,100.1,,
1992-09-01,1992,9,15.3,,88.9,,
1992-10-01,1992,10,11,,101.5,,
1992-11-01,1992,11,10.6,,145.9,,
1992-12-01,1992,12,7.1,,114,,
1993-01-01,1993,1,8.3,,68.9,,
1993-02-01,1993,2,5.6,,13.2,,
1993-03-01,1993,3,8.4,,31.1,,
1993-04-01,1993,4,11,,61.3,,
1993-05-01,1993,5,13.6,,18,,
1993-06-01,1993,6,16.1,,85.4,,
1993-07-01,1993,7,16.5,,59.9,,
1993-08-01,1993,8,16.9,,51,,
1993-09-01,1993,9,14.8,,144.3,,
1993-10-01,1993,10,11.3,,87.3,,
1993-11-01,1993,11,6.7,,46.8,,
1993-12-01,1993,12,8.2,,164.3,,
1994-01-01,1994,1,7.7,,133.6,,
1994-02-01,1994,2,6.6,,83.7,,
1994-03-01,1994,3,9.4,,43.5,,
1994-04-01,1994,4,9.7,,64.9,,
1994-05-01,1994,5,13,,120.3,,
1994-06-01,1994,6,15.8,,25,,
1994-07-01,1994,7,18.9,,27.8,,
1994-08-01,1994,8,17.8,,88,,
1994-09-01,1994,9,15.2,,79.8,,
1994-10-01,1994,10,13.1,,99.4,,
1994-11-01,1994,11,12,,90.9,,
1994-12-01,1994,12,9.2,,168,,
1995-01-01,1995,1,7.2,,178.4,,
1995-02-01,1995,2,9,,139,,
1995-03-01,1995,3,8,,77.6,,
1995-04-01,1995,4,9.9,,46.7,,
1995-05-01,1995,5,14.1,,44.3,,
1995-06-01,1995,6,15.4,,20.4,,
1995-07-01,1995,7,19.2,,49.4,,
1995-08-01,1995,8,20.4,,36.4,,
1995-09-01,1995,9,15.6,,98.8,,
1995-10-01,1995,10,15.5,,33.4,,
1995-11-01,1995,11,9.9,,63,,
1995-12-01,1995,12,5.9,,99.2,,
1996-01-01,1996,1,6.9,,46.8,,
1996-02-01,1996,2,5.4,,105.3,,
1996-03-01,1996,3,7.5,,30,,
1996-04-01,1996,4,10.3,,22.5,,
1996-05-01,1996,5,11,,64,,
1996-06-01,1996,6,16.7,,10.3,,
1996-07-01,1996,7,17.9,,8.9,,
1996-08-01,1996,8,18.6,,93.3,,
1996-09-01,1996,9,15.5,,40.8,,
1996-10-01,1996,10,13.7,,60.7,,
1996-11-01,1996,11,9,,158.8,,
1996-12-01,1996,12,5.5,,75.7,,
1997-01-01,1997,1,3.4,,24,,
1997-02-01,1997,2,8.1,,81.7,,
1997-03-01,1997,3,9.8,,22.1,,
1997-04-01,1997,4,10.9,,30.4,,
1997-05-01,1997,5,13.8,,61.3,,
1997-06-01,1997,6,15.6,,88.5,,
1997-07-01,1997,7,17.5,,16.9,,
1997-08-01,1997,8,20.3,,58.8,,
1997-09-01,1997,9,17.2,,4.3,,
1997-10-01,1997,10,13.5,,113.7,,
1997-11-01,1997,11,10.9,,151.2,,
1997-12-01,1997,12,7.9,,100.6,,
1998-01-01,1998,1,6.6,,105.7,,
1998-02-01,1998,2,7.6,,17.7,,
1998-03-01,1998,3,9.3,,59.1,,
1998-04-01,1998,4,9.5,,162.4,,
1998-05-01,1998,5,14.9,,11.9,,
1998-06-01,1998,6,15.8,,84.3,,
1998-07-01,1998,7,16.6,,35.5,,
1998-08-01,1998,8,17.7,,22.4,,
1998-09-01,1998,9,16.8,,113.2,,
1998-10-01,1998,10,13.5,,152.4,,
1998-11-01,1998,11,8.8,,70.6,,
1998-12-01,1998,12,7.8,,131.9,,
1999-01-01,1999,1,8.1,,111.8,,
1999-02-01,1999,2,7.3,,63.9,,
1999-03-01,1999,3,9.4,,59.5,,
1999-04-01,1999,4,11,,98.8,,
1999-05-01,1999,5,14.8,,30.8,,
1999-06-01,1999,6,15.8,,51.8,,
1999-07-01,1999,7,19,,10.7,,
1999-08-01,1999,8,18.8,,89.3,,
1999-09-01,1999,9,18,,100.6,,
1999-10-01,1999,10,13.2,,71,,
1999-11-01,1999,11,10,,49.9,,
1999-12-01,1999,12,8.1,,279.8,,
2000-01-01,2000,1,6.9,,14.7,,
2000-02-01,2000,2,8.6,,75.6,,
2000-03-01,2000,3,9.2,,61,,
2000-04-01,2000,4,9.7,,91,,
2000-05-01,2000,5,13.9,,90.2,,
2000-06-01,2000,6,16.5,,28.7,,
2000-07-01,2000,7,17.2,,73.3,,
2000-08-01,2000,8,18.6,,26.7,,
2000-09-01,2000,9,17.2,,67.1,,
2000-10-01,2000,10,12.9,,185.7,,
2000-11-01,2000,11,9.7,,193.6,,
2000-12-01,2000,12,8.7,,125.6,,
2001-01-01,2001,1,6.6,,181.9,,
2001-02-01,2001,2,7.3,,119,,
2001-03-01,2001,3,8.8,,196.2,,
2001-04-01,2001,4,10,,90.8,,
2001-05-01,2001,5,13.8,,13.4,,
2001-06-01,2001,6,16.3,,23.3,,
2001-07-01,2001,7,18.6,,57.7,,
2001-08-01,2001,8,19.1,,44.2,,
2001-09-01,2001,9,15.8,,42.9,,
2001-10-01,2001,10,15.5,,95,,
2001-11-01,2001,11,9.6,,72.7,,
2001-12-01,2001,12,6.4,,78.8,,
2002-01-01,2002,1,7.5,,65.3,,
2002-02-01,2002,2,8.8,,104.2,,
2002-03-01,2002,3,9.9,,63.9,,
2002-04-01,2002,4,11.6,,22.4,,
2002-05-01,2002,5,14.1,,81.1,,
2002-06-01,2002,6,15.9,,64.7,,
2002-07-01,2002,7,17.5,,49.3,,
2002-08-01,2002,8,18.2,,63.8,,
2002-09-01,2002,9,17.2,,50.2,,
2002-10-01,2002,10,13.8,,164.1,,
2002-11-01,2002,11,11.5,,154.3,,
2002-12-01,2002,12,8.6,,126.3,,
2003-01-01,2003,1,6.4,,93.4,,
2003-02-01,2003,2,6.2,,44.4,,
2003-03-01,2003,3,10,,60.1,,
2003-04-01,2003,4,11.6,,30,,
2003-05-01,2003,5,13.5,,53.3,,
2003-06-01,2003,6,17.8,,34.3,,
2003-07-01,2003,7,19.2,,64.2,,
2003-08-01,2003,8,20.9,,3.2,,
2003-09-01,2003,9,17.6,,41.9,,
2003-10-01,2003,10,12.4,,97.1,,
2003-11-01,2003,11,10.9,,126.5,,
2003-12-01,2003,12,7.6,,97.8,,
2004-01-01,2004,1,8,,143.6,,
2004-02-01,2004,2,7,,37.1,,
2004-03-01,2004,3,7.8,,35.8,,
2004-04-01,2004,4,10.7,,75.4,,
2004-05-01,2004,5,13.9,,29.9,,
2004-06-01,2004,6,17.1,,29.3,,
2004-07-01,2004,7,17.3,,94,,
2004-08-01,2004,8,19,,101.8,,
2004-09-01,2004,9,17.2,,14.2,,
2004-10-01,2004,10,13.3,,218.9,,
2004-11-01,2004,11,10.7,,43.7,,
2004-12-01,2004,12,7.2,,88.1,,
2005-01-01,2005,1,8,,63.4,,
2005-02-01,2005,2,5.8,,43.6,,
2005-03-01,2005,3,8.6,,51.8,,
2005-04-01,2005,4,10.8,,79.6,,
2005-05-01,2005,5,13.3,,52.6,,
2005-06-01,2005,6,17.4,,39.6,,
2005-07-01,2005,7,18.5,,86.8,,
2005-08-01,2005,8,18.2,,34.2,,
2005-09-01,2005,9,17.5,,36.6,,
2005-10-01,2005,10,15.5,,88.4,,
2005-11-01,2005,11,9.6,,93.6,,
2005-12-01,2005,12,6.5,,97.6,,
2006-01-01,2006,1,5.6,,37.4,,
2006-02-01,2006,2,5.4,,90,,
2006-03-01,2006,3,7,,89.6,,
2006-04-01,2006,4,10.3,,31.2,,
2006-05-01,2006,5,13.6,,49.8,,
2006-06-01,2006,6,17.5,,26,,
2006-07-01,2006,7,20.8,,23,,
2006-08-01,2006,8,18,,44.2,,
2006-09-01,2006,9,18.3,,54,,
2006-10-01,2006,10,15.7,,87.2,,
2006-11-01,2006,11,11.3,,87.6,,
2006-12-01,2006,12,8.1,,150.7,,
2007-01-01,2007,1,8.8,,106.5,,
2007-02-01,2007,2,9,,143.2,,
2007-03-01,2007,3,9,,93.4,,
2007-04-01,2007,4,13.4,,15.7,,
2007-05-01,2007,5,13.9,,113.9,,
2007-06-01,2007,6,16.5,,105.3,,
2007-07-01,2007,7,17,,93.9,,
2007-08-01,2007,8,17.4,,82.5,,
2007-09-01,2007,9,16.1,,46.4,,
2007-10-01,2007,10,13.2,,15.4,,
2007-11-01,2007,11,10.1,,70.9,,
2007-12-01,2007,12,7,,98.4,,
2008-01-01,2008,1,8.1,,111.2,,
2008-02-01,2008,2,7.8,,37.8,,
2008-03-01,2008,3,8.3,,111.9,,
2008-04-01,2008,4,10.3,,61.7,,
2008-05-01,2008,5,15.8,,129.5,,
2008-06-01,2008,6,16.1,,29.8,,
2008-07-01,2008,7,18.1,,30.4,,
2008-08-01,2008,8,17.7,,75.5,,
2008-09-01,2008,9,15.3,,66.7,,
2008-10-01,2008,10,12.3,,118.1,,
2008-11-01,2008,11,9.9,,133.9,,
2008-12-01,2008,12,6.2,,84,,
2009-01-01,2009,1,4.5,,99.4,,
2009-02-01,2009,2,6.1,,46.6,,
2009-03-01,2009,3,8.8,,45,,
2009-04-01,2009,4,11.2,,62.7,,
2009-05-01,2009,5,13.5,,40.5,,
2009-06-01,2009,6,16.8,,46.3,,
2009-07-01,2009,7,18.1,,44.2,,
2009-08-01,2009,8,18.3,,22.7,,
2009-09-01,2009,9,16.8,,23.3,,
2009-10-01,2009,10,14.2,,73.4,,
2009-11-01,2009,11,11.4,,216.3,,
2009-12-01,2009,12,6.9,,107.9,,
2010-01-01,2010,1,4.4,,93.9,,
2010-02-01,2010,2,6,,123.3,,
2010-03-01,2010,3,7.8,,30.9,,
2010-04-01,2010,4,11.3,,14,,
2010-05-01,2010,5,13,,39.4,,
2010-06-01,2010,6,16.7,,44.6,,
2010-07-01,2010,7,18.7,,30.8,,
2010-08-01,2010,8,17.5,,101,,
2010-09-01,2010,9,16.1,,53.5,,
2010-10-01,2010,10,13.6,,124.3,,
2010-11-01,2010,11,9,,192.4,,
2010-12-01,2010,12,4.2,,109.4,,
2011-01-01,2011,1,6.6,,53.8,97.6,1019.3
2011-02-01,2011,2,8.5,,72.2,94.9,1016.5
2011-03-01,2011,3,9,,27.6,192.9,1021.7
2011-04-01,2011,4,13.8,,0.2,281.4,1019.3
2011-05-01,2011,5,14,,18,326.2,1019.8
2011-06-01,2011,6,15.6,,44.8,256,1017.3
2011-07-01,2011,7,17,,91.8,273.5,1014.7
2011-08-01,2011,8,17.5,,43,234.1,1014.9
2011-09-01,2011,9,17.5,,66,215.1,1016.1
2011-10-01,2011,10,14.6,,40.2,117,1019.1
2011-11-01,2011,11,12.4,,27,97.7,1016.7
2011-12-01,2011,12,9,,247.4,51.5,1016.8
2012-01-01,2012,1,8.3,,56.6,78.4,1004.1
2012-02-01,2012,2,5.7,,24,104.6,1030.9
2012-03-01,2012,3,10.3,,30.4,228.5,1028
2012-04-01,2012,4,9.7,,112.8,253.5,1005
2012-05-01,2012,5,13.3,,69.8,267.5,1017
2012-06-01,2012,6,16.1,,91.6,211.2,1013.1
2012-07-01,2012,7,18.1,,58.2,260,1015.8
2012-08-01,2012,8,18.6,,67,271,1015.7
2012-09-01,2012,9,15.7,,63.8,217.7,1016.9
2012-10-01,2012,10,13.3,,176.1,106.3,1010.7
2012-11-01,2012,11,9.4,,132,104.4,1011
2012-12-01,2012,12,8.3,,202.8,75.5,1011.3
2013-01-01,2013,1,6.3,,123.4,55.2,1014.8
2013-02-01,2013,2,5.3,,67.9,109.5,1017.9
2013-03-01,2013,3,6.1,,147,,
2013-04-01,2013,4,9.2,,55.8,,
2013-05-01,2013,5,12,,67.1,,
2013-06-01,2013,6,14.7,,23.5,,
2013-07-01,2013,7,19.2,,34.4,,
2013-08-01,2013,8,18.7,,23.6,,
2013-09-01,2013,9,16.6,,46.9,,
2013-10-01,2013,10,14.9,,134.6,,
2013-11-01,2013,11,9.6,,148.7,,
2013-12-01,2013,12,8.5,,119.4,,
2014-01-01,2014,1,8.3,,177.7,70.5,1004.1
2014-02-01,2014,2,8.3,,133.3,129.2,1001.9
2014-03-01,2014,3,9.5,,54.3,199.8,1016.7
2014-04-01,2014,4,11.8,,67.8,225.4,1015
2014-05-01,2014,5,13.8,,84.9,262,1016.3
2014-06-01,2014,6,17.1,,12.6,322.9,1019.2
2014-07-01,2014,7,19.1,,42.1,336.1,1016.6
2014-08-01,2014,8,17.4,,84.8,257.7,1014.1
2014-09-01,2014,9,18.5,,6.8,274.4,1018.5
2014-10-01,2014,10,15.7,,91.1,156.7,1014.3
2014-11-01,2014,11,11.7,,155.8,78.6,1006.2
2014-12-01,2014,12,8.8,,94.4,65.2,1022.5
2015-01-01,2015,1,7.7,,106.6,70.4,1017.9
2015-02-01,2015,2,6.3,,99.6,130.4,1018
2015-03-01,2015,3,8.8,,37.4,157.9,1022
2015-04-01,2015,4,12.4,,39.7,258.9,1022
2015-05-01,2015,5,13.4,,40.5,249.9,1015.9
2015-06-01,2015,6,16.6,,40.9,315,1021
2015-07-01,2015,7,18.4,,65.3,247.6,1016.7
2015-08-01,2015,8,18,,163.4,192.3,1015.1
2015-09-01,2015,9,15.4,,61.4,251.2,1017.4
2015-10-01,2015,10,13.5,,56.1,139.8,1017.5
2015-11-01,2015,11,12.6,,97.1,77.2,1019.6
2015-12-01,2015,12,11.6,,85.8,76.1,1021.8
2016-01-01,2016,1,7.8,,190.9,60.9,1011.2
2016-02-01,2016,2,7.6,,134.1,106.2,1012.3
2016-03-01,2016,3,7.8,,110.9,177.3,1015.4
2016-04-01,2016,4,9.8,,39.5,238,1013.5
2016-05-01,2016,5,13.9,,42.4,262.7,1014.7
2016-06-01,2016,6,16,,62.7,180.7,1016.1
2016-07-01,2016,7,17.8,,23.2,268,1019.7
2016-08-01,2016,8,18.9,,53.9,293.6,1020.3
2016-09-01,2016,9,18.1,,47,192.5,1018.5
2016-10-01,2016,10,13.1,,56.6,177.6,1020.6
2016-11-01,2016,11,9.8,,139.2,96.1,1014.8
2016-12-01,2016,12,8.2,,22.6,98.7,1028.2
2017-01-01,2017,1,5.9,,72.4,107.2,1024.1
2017-02-01,2017,2,8,,98.4,86.6,1015.2
2017-03-01,2017,3,10.4,,80.8,147.6,1016.6
2017-04-01,2017,4,11.1,,40.8,285,1023.3
2017-05-01,2017,5,14.7,,79.4,259,1016.5
2017-06-01,2017,6,18,,42,295.7,1015.4
2017-07-01,2017,7,18.5,,47.6,265.9,1015.9
2017-08-01,2017,8,17.7,,104.6,244.6,1018.1
2017-09-01,2017,9,15.4,,129.4,175.1,1015.6
2017-10-01,2017,10,14.4,,67,134.5,1021.2
2017-11-01,2017,11,10.3,,111,108.9,1018.9
2017-12-01,2017,12,8.2,,181.8,56.6,1017
2018-01-01,2018,1,8.5,,149.8,69.9,1014.2
2018-02-01,2018,2,4.9,,56.4,149.4,1017.2
2018-03-01,2018,3,7.5,7.3,119.2,131.5,1001.4
2018-04-01,2018,4,11.9,9.5,66.4,191.2,1011
2018-05-01,2018,5,14.6,12.3,25.8,323.7,1017.7
2018-06-01,2018,6,16.9,14.8,41,268,1019.3
2018-07-01,2018,7,20.2,17.4,20,351.8,1017.3
2018-08-01,2018,8,18.5,18.5,43.6,221.7,1019
2018-09-01,2018,9,16.8,18.1,35.6,243.8,
2018-10-01,2018,10,13.7,16.1,59.8,191.8,
2018-11-01,2018,11,10.1,12.9,77.4,121,
2018-12-01,2018,12,9.2,11,109.1,50.4,
2019-01-01,2019,1,7,9.5,66.6,43.4,
2019-02-01,2019,2,8.6,8.5,63.4,162.3,
2019-03-01,2019,3,10,9.6,65.1,185.2,
2019-04-01,2019,4,11.5,10.8,54.4,227.5,
2019-05-01,2019,5,13.1,12.9,47.6,285.4,
2019-06-01,2019,6,16.5,15,91.6,264.5,
2019-07-01,2019,7,19.7,17.5,10.2,373.9,
2019-08-01,2019,8,18.6,18.4,69.6,268.8,
2019-09-01,2019,9,16.7,17.8,77.2,201.4,
2019-10-01,2019,10,13.8,16.1,194,116.5,
2019-11-01,2019,11,9.4,12.7,200,76.8,
2019-12-01,2019,12,8.6,10.5,123,92.6,
2020-01-01,2020,1,8.2,9.6,93.4,81,
2020-02-01,2020,2,9,9.1,152.4,110.2,
2020-03-01,2020,3,9,9.3,92.4,187.9,
2020-04-01,2020,4,13.5,10.9,41.8,278.7,
2020-05-01,2020,5,14.9,13.1,17.2,360.2,
2020-06-01,2020,6,16.7,15.3,97.6,251,
2020-07-01,2020,7,17.7,17.2,10.8,294.2,
2020-08-01,2020,8,19.7,18.7,48.6,293.1,
2020-09-01,2020,9,17.4,18.5,38.7,228.7,
2020-10-01,2020,10,13,15.3,241.6,118.7,
2020-11-01,2020,11,11.4,13.4,84.5,108.1,
2020-12-01,2020,12,8.2,11,259.4,74.5,
2021-01-01,2021,1,6.3,8.9,156.9,68.5,
2021-02-01,2021,2,6.9,8.1,44.8,114,
2021-03-01,2021,3,9,8.6,39.8,201,
2021-04-01,2021,4,9.4,10.1,12,316.9,
2021-05-01,2021,5,12.3,12.1,102.4,286.7,
2021-06-01,2021,6,16.6,14.8,92.2,235.4,
2021-07-01,2021,7,18.5,16.7,50.8,273.1,
2021-08-01,2021,8,17.6,17.8,30.4,239.7,
2021-09-01,2021,9,18.2,18.1,61.6,245.5,
2021-10-01,2021,10,14.4,16.4,135.5,197.3,
2021-11-01,2021,11,10,13.7,69.1,95.4,
2021-12-01,2021,12,8.5,10.5,110.2,58.1,
2022-01-01,2022,1,7.3,9.5,78.9,59.1,
2022-02-01,2022,2,8.4,9.2,70.7,106.8,
2022-03-01,2022,3,10.2,9.6,49.8,206,
2022-04-01,2022,4,11.3,11,33.4,270.4,
